Location: Biltmore Gardens
(41.6070°N, 83.4666°W)
Time: 23:52:28
(UTC+00:00)

N. Korean satellite - Pass Details

Date: 07 March 2021
Orbit: 453 x 499 km, 97.2° (Epoch: 11 April)

Event Time Altitude Azimuth Distance (km) Brightness Sun altitude
Rises 11:28:14 0° 3° (N) 2,538 10.2 -6.5°
Reaches altitude 10° 11:30:22 10° 355° (N) 1,663 9.2 -6.1°
Maximum altitude 11:33:41 37° 287° (WNW) 772 7.1 -5.5°
Drops below altitude 10° 11:37:01 10° 219° (SW) 1,674 8.9 -4.8°
Sets 11:39:11 0° 211° (SSW) 2,557 9.9 -4.4°
